Tracking 19794 objects as of 21-Jul-2019
HD Live streaming from Space Station
objects crossing your sky now

FENGYUN 1C DEB

Track FENGYUN 1C DEB now!
10-day predictions


NORAD ID: 35165
Int'l Code: 1999-025DMV
Perigee: 827.4 km
Apogee: 867.3 km
Inclination: 99.0 °
Period: 101.7 minutes
Semi major axis: 7218 km
RCS: 0.0024 m2 (small)
Launch date: May 10, 1999
Source: People's Republic of China (PRC)
Launch site: Taiyaun Space Center, China (TSC)

Note: This is SATELLITE DEBRIS
aabbcc
Your satellite tracking list
Your tracking list is empty




NASA's NSSDC Master Catalog

Two Line Element Set (TLE):
1 35165U 99025DMV 19200.88924182 +.00000498 +00000-0 +27699-3 0  9996
2 35165 099.0111 234.9514 0027652 281.7999 078.0073 14.15624749565260
Source of the keplerian elements: AFSPC